Longville, MN

9:12 PM CST on December 11, 2017 (GMT -0600)
Longville Municipal

Weather History for KXVG - December, 2013

Change the Weather History Date:

Saturday, December 7, 2013

  Actual Average (KPWC) Record (KPWC)
Temperature  
Mean Temperature -18 °F -  
Max Temperature -4 °F 28 °F 39 °F (1998)
Min Temperature -32 °F 14 °F -29 °F (2013)
Degree Days  
Heating Degree Days 83    
Moisture  
Dew Point -25 °F    
Average Humidity 74    
Maximum Humidity 84    
Minimum Humidity 60    
Precipitation  
Precipitation 0.00 in - - ()
Sea Level Pressure  
Sea Level Pressure 30.49 in    
Wind  
Wind Speed 2 mph (SW)    
Max Wind Speed 10 mph    
Max Gust Speed -    
Visibility 10 miles    
Events      
Averages and records for this station are not official NWS values.
T = Trace of Precipitation, MM = Missing Value Source: NWS Daily Summary

Daily Weather History Graph

Daily Weather History Graph

Search for Another Location

Airport or City:

Trip Planner

Search our weather history database for the weather conditions in past years. The results will help you decide how hot, cold, wet, or windy it might be!

Date:

Astronomy

Dec. 07, 2013 Rise Set
Actual Time 7:48 AM CST 4:27 PM CST
Civil Twilight 7:13 AM CST 5:02 PM CST
Nautical Twilight 6:35 AM CST 5:41 PM CST
Astronomical Twilight 5:58 AM CST 6:18 PM CST
Moon 11:20 AM CST (12/7) 10:25 PM CST (12/7)
Length of Visible Light 9h 49m
Length of Day
8h 39m
Waxing Crescent, 29% of the Moon is Illuminated
Dec 7
Waxing Crescent
Dec 9
First Quarter
Dec 17
Full
Dec 25
Last Quarter
Jan 1
New

Hourly Weather History & Observations

Time (CST) Temp. Windchill Dew Point Humidity Pressure Visibility Wind Dir Wind Speed Gust Speed Precip Events Conditions
12:16 AM -22.0 °F - -27.4 °F 76% 30.50 in 10.0 mi Calm Calm - N/A   Clear
12:36 AM -22.0 °F - -27.4 °F 76% 30.50 in 10.0 mi Calm Calm - N/A   Clear
12:56 AM -23.8 °F - -29.2 °F 76% 30.50 in 10.0 mi Calm Calm - N/A   Clear
1:16 AM -23.8 °F -35.0 °F -29.2 °F 76% 30.50 in 10.0 mi SW 3.5 mph - N/A   Clear
1:35 AM -23.8 °F - -29.2 °F 76% 30.50 in 10.0 mi Calm Calm - N/A   Clear
1:56 AM -23.8 °F - -29.2 °F 76% 30.50 in 10.0 mi Calm Calm - N/A   Clear
2:16 AM -25.6 °F - -32.8 °F 69% 30.51 in 10.0 mi Calm Calm - N/A   Clear
2:36 AM -25.6 °F -37.1 °F -32.8 °F 69% 30.52 in 10.0 mi WSW 3.5 mph - N/A   Clear
2:56 AM -25.6 °F - -31.0 °F 76% 30.52 in 10.0 mi Calm Calm - N/A   Clear
3:15 AM -23.8 °F -37.7 °F -29.2 °F 76% 30.52 in 10.0 mi WSW 4.6 mph - N/A   Scattered Clouds
3:36 AM -23.8 °F - -27.4 °F 83% 30.52 in 10.0 mi Calm Calm - N/A   Clear
3:56 AM -27.4 °F - -32.8 °F 75% 30.51 in 10.0 mi Calm Calm - N/A   Clear
4:16 AM -27.4 °F -39.2 °F -32.8 °F 75% 30.52 in 10.0 mi SW 3.5 mph - N/A   Clear
4:36 AM -25.6 °F -37.1 °F -31.0 °F 76% 30.52 in 10.0 mi West 3.5 mph - N/A   Clear
4:56 AM -25.6 °F - -32.8 °F 69% 30.51 in 10.0 mi Calm Calm - N/A   Clear
5:16 AM -27.4 °F - -32.8 °F 75% 30.51 in 10.0 mi Calm Calm - N/A   Clear
5:36 AM -27.4 °F - -34.6 °F 69% 30.52 in 10.0 mi Calm Calm - N/A   Clear
5:56 AM -29.2 °F - -36.4 °F 68% 30.51 in 10.0 mi Calm Calm - N/A   Clear
6:16 AM -29.2 °F -41.2 °F -36.4 °F 68% 30.50 in 10.0 mi WNW 3.5 mph - N/A   Clear
6:35 AM -31.0 °F - -36.4 °F 75% 30.50 in 10.0 mi Calm Calm - N/A   Clear
6:55 AM -31.0 °F - -36.4 °F 75% 30.51 in 10.0 mi Calm Calm - N/A   Clear
7:16 AM -32.8 °F -45.3 °F -38.2 °F 75% 30.51 in 10.0 mi West 3.5 mph - N/A   Clear
7:35 AM -32.8 °F - -38.2 °F 75% 30.51 in 10.0 mi Calm Calm - N/A   Clear
7:56 AM -32.8 °F - -38.2 °F 75% 30.51 in 10.0 mi Calm Calm - N/A   Clear
8:15 AM -31.0 °F - -38.2 °F 68% 30.52 in 10.0 mi Calm Calm - N/A   Clear
8:36 AM -31.0 °F - -38.2 °F 68% 30.52 in 10.0 mi Calm Calm - N/A   Clear
8:55 AM -27.4 °F - -34.6 °F 69% 30.52 in 10.0 mi Calm Calm - N/A   Clear
9:16 AM -20.2 °F -30.9 °F -25.6 °F 76% 30.52 in 10.0 mi SSW 3.5 mph - N/A   Clear
9:35 AM -16.6 °F -31.3 °F -22.0 °F 76% 30.52 in 10.0 mi SSW 5.8 mph - N/A   Clear
9:55 AM -16.6 °F -26.8 °F -20.2 °F 84% 30.53 in 10.0 mi SW 3.5 mph - N/A   Clear
10:15 AM -14.8 °F -27.2 °F -20.2 °F 77% 30.53 in 10.0 mi WSW 4.6 mph - N/A   Clear
10:35 AM -11.2 °F -26.4 °F -16.6 °F 77% 30.53 in 10.0 mi SW 6.9 mph - N/A   Clear
10:56 AM -11.2 °F -26.4 °F -16.6 °F 77% 30.53 in 10.0 mi SW 6.9 mph - N/A   Clear
11:16 AM -9.4 °F -24.3 °F -14.8 °F 77% 30.52 in 10.0 mi WSW 6.9 mph - N/A   Clear
11:36 AM -9.4 °F -25.6 °F -14.8 °F 77% 30.51 in 10.0 mi SW 8.1 mph - N/A   Clear
11:55 AM -7.6 °F -18.8 °F -16.6 °F 65% 30.51 in 10.0 mi SW 4.6 mph - N/A   Clear
12:16 PM -7.6 °F -24.6 °F -16.6 °F 65% 30.50 in 10.0 mi SW 9.2 mph - N/A   Clear
12:35 PM -7.6 °F -23.4 °F -14.8 °F 71% 30.50 in 10.0 mi SW 8.1 mph - N/A   Clear
12:56 PM -5.8 °F -21.2 °F -14.8 °F 65% 30.50 in 10.0 mi WSW 8.1 mph - N/A   Clear
1:16 PM -5.8 °F -16.7 °F -14.8 °F 65% 30.49 in 10.0 mi SW 4.6 mph - N/A   Clear
1:35 PM -5.8 °F -19.9 °F -14.8 °F 65% 30.49 in 10.0 mi WSW 6.9 mph - N/A   Scattered Clouds
1:55 PM -4.0 °F -19.0 °F -14.8 °F 60% 30.49 in 10.0 mi SW 8.1 mph - N/A   Scattered Clouds
2:15 PM -4.0 °F -21.2 °F -14.8 °F 60% 30.50 in 10.0 mi WSW 10.4 mph - N/A   Clear
2:36 PM -5.8 °F -18.4 °F -14.8 °F 65% 30.49 in 10.0 mi SW 5.8 mph - N/A   Scattered Clouds
2:56 PM -5.8 °F -19.9 °F -14.8 °F 65% 30.49 in 10.0 mi SW 6.9 mph - N/A   Mostly Cloudy
3:16 PM -7.6 °F -22.1 °F -14.8 °F 71% 30.49 in 10.0 mi SW 6.9 mph - N/A   Scattered Clouds
3:36 PM -5.8 °F -18.4 °F -14.8 °F 65% 30.49 in 10.0 mi SSW 5.8 mph - N/A   Scattered Clouds
3:56 PM -7.6 °F -22.1 °F -14.8 °F 71% 30.49 in 10.0 mi SSW 6.9 mph - N/A   Clear
4:15 PM -7.6 °F -20.6 °F -16.6 °F 65% 30.49 in 10.0 mi SW 5.8 mph - N/A   Clear
4:36 PM -9.4 °F -24.3 °F -16.6 °F 71% 30.49 in 10.0 mi SW 6.9 mph - N/A   Clear
4:56 PM -9.4 °F -18.6 °F -16.6 °F 71% 30.49 in 10.0 mi SSW 3.5 mph - N/A   Clear
5:16 PM -11.2 °F -23.0 °F -16.6 °F 77% 30.48 in 10.0 mi SSW 4.6 mph - N/A   Clear
5:36 PM -11.2 °F -20.6 °F -18.4 °F 70% 30.48 in 10.0 mi SW 3.5 mph - N/A   Clear
5:55 PM -14.8 °F - -20.2 °F 77% 30.47 in 10.0 mi Calm Calm - N/A   Clear
6:16 PM -14.8 °F -24.8 °F -18.4 °F 84% 30.47 in 10.0 mi SSW 3.5 mph - N/A   Clear
6:36 PM -14.8 °F -27.2 °F -18.4 °F 84% 30.47 in 10.0 mi South 4.6 mph - N/A   Clear
6:56 PM -14.8 °F -24.8 °F -18.4 °F 84% 30.47 in 10.0 mi SSW 3.5 mph - N/A   Clear
7:16 PM -14.8 °F -27.2 °F -20.2 °F 77% 30.47 in 10.0 mi SSW 4.6 mph - N/A   Clear
7:36 PM -14.8 °F -29.1 °F -20.2 °F 77% 30.47 in 10.0 mi SSW 5.8 mph - N/A   Clear
7:56 PM -14.8 °F -29.1 °F -20.2 °F 77% 30.47 in 10.0 mi SSW 5.8 mph - N/A   Clear
8:16 PM -14.8 °F -29.1 °F -20.2 °F 77% 30.47 in 10.0 mi SSW 5.8 mph - N/A   Clear
8:36 PM -16.6 °F -29.3 °F -20.2 °F 84% 30.46 in 10.0 mi SW 4.6 mph - N/A   Clear
8:56 PM -16.6 °F -26.8 °F -20.2 °F 84% 30.45 in 10.0 mi SSW 3.5 mph - N/A   Clear
9:16 PM -16.6 °F -26.8 °F -20.2 °F 84% 30.45 in 10.0 mi SW 3.5 mph - N/A   Clear
9:36 PM -18.4 °F - -23.8 °F 76% 30.44 in 10.0 mi Calm Calm - N/A   Clear
9:56 PM -22.0 °F - -27.4 °F 76% 30.45 in 10.0 mi Calm Calm - N/A   Clear
10:16 PM -23.8 °F - -29.2 °F 76% 30.44 in 10.0 mi Calm Calm - N/A   Clear
10:36 PM -25.6 °F - -31.0 °F 76% 30.44 in 10.0 mi Calm Calm - N/A   Clear
10:56 PM -25.6 °F - -32.8 °F 69% 30.45 in 10.0 mi Calm Calm - N/A   Clear
11:16 PM -27.4 °F - -32.8 °F 75% 30.45 in 10.0 mi Calm Calm - N/A   Clear
11:36 PM -27.4 °F - -32.8 °F 75% 30.44 in 10.0 mi Calm Calm - N/A   Clear
11:56 PM -27.4 °F - -32.8 °F 75% 30.43 in 10.0 mi Calm Calm - N/A   Clear